Regional Weather Roundup
Issued by NWS Northern Indiana

Home | Current Version | Previous Version | Graphics & Text | Print | Product List | Glossary On
Versions: 1 2 3 4 5 6 7 8 9 10 11 12 13 14 15 16 17 18 19 20 21 22 23 24 25 26 27 28 29 30 31 32 33 34 35 36 37 38 39 40 41 42 43 44 45 46 47 48 49 50
000
ASUS43 KIWX 300710
RWRIWX

KIWX WEATHER ROUNDUP
NATIONAL WEATHER SERVICE NORTHERN INDIANA
300 AM EDT FRI SEP 30 2016

NOTE: "FAIR" INDICATES FEW OR NO CLOUDS BELOW 12,000 FEET WITH NO
SIGNIFICANT WEATHER AND/OR OBSTRUCTIONS TO VISIBILITY.

* THESE STATIONS ARE NOT UNDER NWS QUALITY CONTROL. THEY ALSO MAY NOT
  REPORT WEATHER SUCH AS PRECIPITATION OR FOG.

INZ001>027-300800-
NORTHERN INDIANA

CITY           SKY/WX    TMP DP  RH WIND       PRES   REMARKS
GARY*          CLOUDY    62  61  97 NE13G20   30.14F
VALPARAISO     CLOUDY    58  57  97 N5        30.13F
MICHIGAN CITY* CLOUDY    57  57 100 MISG      30.14S
LAPORTE*       CLOUDY   N/A N/A N/A NE7       30.14S
KNOX*          CLOUDY    57  46  67 N8        30.12S
SOUTH BEND     CLOUDY    58  58 100 NE8       30.14R
GOSHEN         CLOUDY    61  57  87 NE9       30.12R
MONTICELLO*    CLOUDY    59  55  87 NE7       30.09F
LOGANSPORT*    CLOUDY    59  57  94 N6        30.10S
ROCHESTER*     CLOUDY    61  61 100 NE3       30.11R
WARSAW*        CLOUDY    59  59 100 NE7       30.11S
ANGOLA*          N/A     61  48  63 NE7       30.12S
FORT WAYNE     CLOUDY    61  59  93 E7        30.10S
HUNTINGTON*    DRIZZLE   59  58  96 NE3       30.09F
PERU/GRISSOM   CLOUDY    60  60 100 N6        30.07F
MARION*        CLOUDY    60  58  92 NE5       30.09F

$$
INZ028>050-300800-
CENTRAL INDIANA

CITY           SKY/WX    TMP DP  RH WIND       PRES   REMARKS
LAFAYETTE      CLOUDY    59  59 100 NE9       30.08S
KOKOMO*        CLOUDY    60  59  96 NE6       30.09S
MUNCIE*        CLOUDY    61  58  90 NE7       30.06F
INDIANAPOLIS   LGT RAIN  60  58  92 N12       30.04F

$$
MIZ043>046-050>051-056>058-064>065-071>073-077>080-300800-
SOUTHWEST LOWER MICHIGAN

CITY           SKY/WX    TMP DP  RH WIND       PRES   REMARKS
BATTLE CREEK   CLOUDY    59  59 100 NE13      30.17S
BENTON HARBOR  CLOUDY    60  56  86 NE9       30.15S
COLDWATER*     DRIZZLE   60  60  99 NE12      30.13F
HILLSDALE*     DRIZZLE   59  57  94 NE7       30.13S
HOLLAND        CLOUDY    60  56  86 NE9       30.18F
GRAND RAPIDS   CLOUDY    58  56  93 NE15      30.20R FOG
KALAMAZOO      CLOUDY    60  56  86 NE8       30.16S
STURGIS*       CLOUDY    60  58  93 NE10G16   30.12F
THREE RIVERS*  CLOUDY    60  59  96 NE8       30.14S

$$
OHZ001>008-015>018-024>025-300800-
NORTHWEST OHIO

CITY           SKY/WX    TMP DP  RH WIND       PRES   REMARKS
WAUSEON*       CLOUDY    61  61 100 NE8       30.10F
DEFIANCE       MOCLDY    62  58  86 N3        30.10F
FINDLAY        CLOUDY    62  58  86 NE8       30.09R
TOLEDO EXPRESS LGT RAIN  62  62 100 E12       30.09F
TOLEDO METCALF CLOUDY    64  61  90 E9        30.10F
LIMA           CLOUDY    59  59 100 NE3       30.09R

$$
AND FOR LAKE MICHIGAN COASTAL AND OPEN LAKE BUOY OBSERVATIONS

STATION/POSITION TEMP    WIND        PRES    VSBY  WAVE
                 AIR SEA DIR/SP/G                  HT/PER
                 (F)     (DEG/KT/KT) (MB)    (MI)  (FT/S)
CALUMET HARBOR            30/ 13/ 21 1020.4S
MICHIGAN CITY     60      20/ 19/ 21   N/A
BURNS HARBOR      62      50/ 21/ 25 1020.7F
SAINT JOSEPH      60      30/  4/ 10 1021.0
SOUTH LAKE BUOY   63 68   60/ 21/ 27 1021.4F         5/ 7
4 MI NW BRIDGMAN  57 58   30/ 10/ 14 1021.0          4/ 5
MICHIGAN CITY     61 64   40/ 17/ 23   N/A           7/ 7

$$
&&




USA.gov is the U.S. government's official web portal to all federal, state and local government web resources and services.